Weather History for Patterson, LA

Change the Weather History Date:

Saturday, March 9, 2013

  Actual Average Record
Temperature  
Mean Temperature 63 °F -  
Max Temperature 71 °F 67 °F 80 °F (1999)
Min Temperature 55 °F 51 °F 37 °F (2008)
Degree Days  
Heating Degree Days 2    
Growing Degree Days 13 (Base 50)    
Moisture  
Dew Point 57 °F    
Average Humidity 80    
Maximum Humidity 94    
Minimum Humidity 68    
Precipitation  
Precipitation 0.00 in - - ()
Sea Level Pressure  
Sea Level Pressure 30.07 in    
Wind  
Wind Speed 9 mph (SE)    
Max Wind Speed 20 mph    
Max Gust Speed 25 mph    
Visibility 10 miles    
Events      
Averages and records for this station are not official NWS values.
T = Trace of Precipitation, MM = Missing Value Source: NWS Daily Summary

Daily Weather History Graph

Daily Weather History Graph

Search for Another Location

Airport:

Trip Planner

Search our weather history database for the weather conditions in past years. The results will help you decide how hot, cold, wet, or windy it might be!

Date:

Astronomy

Mar. 09, 2013 Rise Set
Actual Time 6:21 AM CST 6:10 PM CST
Civil Twilight 5:58 AM CST 6:33 PM CST
Nautical Twilight 5:30 AM CST 7:01 PM CST
Astronomical Twilight 5:02 AM CST 7:29 PM CST
Moon 4:38 AM CST (3/9) 4:18 PM CST (3/9)
Length of Visible Light 12h 35m
Length of Day
11h 48m
Waning Crescent, 5% of the Moon is Illuminated
Mar 9
Waning Crescent
Mar 11
New
Mar 19
First Quarter
Mar 27
Full
Apr 2
Last Quarter

Hourly Weather History & Observations

Time (CST) Temp. Dew Point Humidity Pressure Visibility Wind Dir Wind Speed Gust Speed Precip Events Conditions
12:15 AM 55.4 °F 48.2 °F 77% 30.16 in 10.0 mi ESE 6.9 mph - N/A   Unknown
12:35 AM 55.4 °F 46.4 °F 72% 30.16 in 10.0 mi ESE 5.8 mph - N/A   Unknown
12:55 AM 55.4 °F 46.4 °F 72% 30.15 in 10.0 mi ESE 4.6 mph - N/A   Unknown
1:15 AM 55.4 °F 46.4 °F 72% 30.15 in 10.0 mi SE 3.5 mph - N/A   Unknown
1:35 AM 55.4 °F 48.2 °F 77% 30.14 in 10.0 mi ESE 4.6 mph - N/A   Unknown
1:55 AM 55.4 °F 48.2 °F 77% 30.12 in 10.0 mi ESE 8.1 mph - N/A   Unknown
2:15 AM 57.2 °F 48.2 °F 72% 30.12 in 10.0 mi SE 8.1 mph - N/A   Unknown
2:35 AM 55.4 °F 50.0 °F 82% 30.12 in 10.0 mi SE 8.1 mph - N/A   Unknown
2:55 AM 55.4 °F 50.0 °F 82% 30.11 in 10.0 mi ESE 8.1 mph - N/A   Unknown
3:15 AM 55.4 °F 51.8 °F 88% 30.10 in 10.0 mi ESE 8.1 mph - N/A   Unknown
3:55 AM 55.4 °F 51.8 °F 88% 30.10 in 10.0 mi ESE 5.8 mph - N/A   Unknown
4:15 AM 55.4 °F 51.8 °F 88% 30.10 in 10.0 mi SE 5.8 mph - N/A   Unknown
4:35 AM 57.2 °F 51.8 °F 82% 30.11 in 10.0 mi SE 4.6 mph - N/A   Unknown
4:55 AM 55.4 °F 51.8 °F 88% 30.12 in 10.0 mi SE 5.8 mph - N/A   Unknown
5:15 AM 55.4 °F 51.8 °F 88% 30.13 in 10.0 mi East 3.5 mph - N/A   Unknown
5:35 AM 55.4 °F 53.6 °F 94% 30.12 in 10.0 mi East 5.8 mph - N/A   Unknown
5:55 AM 55.4 °F 53.6 °F 94% 30.12 in 10.0 mi East 4.6 mph - N/A   Unknown
6:15 AM 55.4 °F 53.6 °F 94% 30.12 in 10.0 mi East 4.6 mph - N/A   Unknown
6:35 AM 55.4 °F 53.6 °F 94% 30.13 in 10.0 mi East 4.6 mph - N/A   Unknown
6:55 AM 57.2 °F 53.6 °F 88% 30.14 in 10.0 mi East 4.6 mph - N/A   Unknown
7:15 AM 57.2 °F 53.6 °F 88% 30.14 in 10.0 mi East 6.9 mph - N/A   Unknown
7:35 AM 59.0 °F 55.4 °F 88% 30.14 in 10.0 mi East 8.1 mph - N/A   Unknown
7:55 AM 60.8 °F 55.4 °F 82% 30.14 in 10.0 mi East 9.2 mph - N/A   Unknown
8:15 AM 60.8 °F 55.4 °F 82% 30.14 in 10.0 mi ESE 8.1 mph - N/A   Unknown
8:35 AM 62.6 °F 57.2 °F 82% 30.15 in 10.0 mi ESE 6.9 mph - N/A   Unknown
8:55 AM 64.4 °F 57.2 °F 77% 30.16 in 10.0 mi ESE 9.2 mph - N/A   Unknown
9:15 AM 64.4 °F 57.2 °F 77% 30.16 in 10.0 mi ESE 6.9 mph - N/A   Unknown
9:35 AM 64.4 °F 57.2 °F 77% 30.16 in 10.0 mi ESE 9.2 mph - N/A   Unknown
9:55 AM 66.2 °F 57.2 °F 73% 30.16 in 10.0 mi ESE 9.2 mph - N/A   Unknown
10:15 AM 66.2 °F 57.2 °F 73% 30.15 in 10.0 mi ESE 8.1 mph - N/A   Unknown
10:35 AM 66.2 °F 57.2 °F 73% 30.15 in 10.0 mi ESE 10.4 mph - N/A   Unknown
10:55 AM 66.2 °F 59.0 °F 78% 30.15 in 10.0 mi ESE 11.5 mph 16.1 mph N/A   Unknown
11:15 AM 68.0 °F 59.0 °F 73% 30.14 in 10.0 mi SE 12.7 mph - N/A   Unknown
11:35 AM 68.0 °F 59.0 °F 73% 30.13 in 10.0 mi ESE 16.1 mph - N/A   Unknown
11:55 AM 69.8 °F 60.8 °F 73% 30.14 in 10.0 mi SE 9.2 mph - N/A   Unknown
12:35 PM 69.8 °F 60.8 °F 73% 30.11 in 10.0 mi ESE 13.8 mph 23.0 mph N/A   Unknown
12:55 PM 71.6 °F 60.8 °F 69% 30.10 in 10.0 mi SE 15.0 mph 18.4 mph N/A   Unknown
1:15 PM 69.8 °F 60.8 °F 73% 30.10 in 10.0 mi SE 10.4 mph 18.4 mph N/A   Unknown
1:35 PM 69.8 °F 60.8 °F 73% 30.08 in 10.0 mi SE 16.1 mph 19.6 mph N/A   Unknown
1:55 PM 71.6 °F 60.8 °F 69% 30.07 in 10.0 mi SE 9.2 mph 19.6 mph N/A   Unknown
2:15 PM 69.8 °F 60.8 °F 73% 30.06 in 10.0 mi SE 13.8 mph 18.4 mph N/A   Unknown
2:35 PM 69.8 °F 60.8 °F 73% 30.05 in 10.0 mi SSE 16.1 mph 20.7 mph N/A   Unknown
2:55 PM 69.8 °F 60.8 °F 73% 30.04 in 10.0 mi SE 13.8 mph 19.6 mph N/A   Unknown
3:15 PM 71.6 °F 60.8 °F 69% 30.04 in 10.0 mi SE 11.5 mph - N/A   Unknown
3:35 PM 71.6 °F 60.8 °F 69% 30.03 in 10.0 mi SE 12.7 mph 21.9 mph N/A   Unknown
3:55 PM 71.6 °F 60.8 °F 69% 30.02 in 10.0 mi SE 18.4 mph 23.0 mph N/A   Unknown
4:35 PM 69.8 °F 59.0 °F 68% 30.00 in 10.0 mi SE 19.6 mph 25.3 mph N/A   Unknown
4:55 PM 69.8 °F 60.8 °F 73% 30.01 in 10.0 mi SE 17.3 mph 23.0 mph N/A   Scattered Clouds
5:35 PM 69.8 °F 60.8 °F 73% 30.00 in 10.0 mi SE 15.0 mph 24.2 mph N/A   Mostly Cloudy
5:55 PM 68.0 °F 60.8 °F 78% 30.00 in 10.0 mi SE 12.7 mph 17.3 mph N/A   Mostly Cloudy
6:15 PM 66.2 °F 60.8 °F 83% 30.00 in 10.0 mi SE 12.7 mph 17.3 mph N/A   Scattered Clouds
6:35 PM 66.2 °F 60.8 °F 83% 30.00 in 10.0 mi SE 11.5 mph - N/A   Partly Cloudy
6:55 PM 66.2 °F 60.8 °F 83% 29.98 in 10.0 mi ESE 15.0 mph 19.6 mph N/A   Clear
7:15 PM 66.2 °F 60.8 °F 83% 29.98 in 10.0 mi ESE 11.5 mph 18.4 mph N/A   Clear
7:35 PM 66.2 °F 60.8 °F 83% 29.98 in 10.0 mi SE 12.7 mph 20.7 mph N/A   Clear
7:55 PM 66.2 °F 60.8 °F 83% 29.97 in 10.0 mi ESE 11.5 mph 17.3 mph N/A   Scattered Clouds
8:15 PM 66.2 °F 60.8 °F 83% 29.98 in 10.0 mi ESE 9.2 mph - N/A   Scattered Clouds
8:35 PM 66.2 °F 60.8 °F 83% 29.98 in 10.0 mi SE 10.4 mph - N/A   Clear
8:55 PM 66.2 °F 60.8 °F 83% 29.98 in 10.0 mi SE 13.8 mph 18.4 mph N/A   Clear
9:15 PM 66.2 °F 60.8 °F 83% 29.98 in 10.0 mi SE 10.4 mph 18.4 mph N/A   Clear
9:35 PM 64.4 °F 60.8 °F 88% 29.97 in 10.0 mi SE 10.4 mph - N/A   Clear
9:55 PM 64.4 °F 60.8 °F 88% 29.97 in 10.0 mi SE 8.1 mph - N/A   Clear
10:15 PM 64.4 °F 60.8 °F 88% 29.98 in 10.0 mi SSE 11.5 mph 16.1 mph N/A   Clear
10:35 PM 64.4 °F 60.8 °F 88% 29.97 in 10.0 mi SSE 11.5 mph - N/A   Clear
10:55 PM 64.4 °F 60.8 °F 88% 29.96 in 10.0 mi SE 11.5 mph - N/A   Clear
11:15 PM 64.4 °F 60.8 °F 88% 29.95 in 10.0 mi SE 11.5 mph - N/A   Clear
11:35 PM 64.4 °F 60.8 °F 88% 29.95 in 10.0 mi SE 10.4 mph 16.1 mph N/A   Mostly Cloudy
11:55 PM 66.2 °F 60.8 °F 83% 29.94 in 10.0 mi SE 12.7 mph 16.1 mph N/A   Overcast